Date String (YYYY-MM-DD hh:mm:ss) UTC,Instrument flags,Ambient pressure (hPa),Sample flow (lpm),Bypass flow (lpm),Sample temperature (°C),Ambient temperature (°C),ASC tube jacket temperature (°C),LED temperature (°C),Box temperature (°C),Sample RH (%),Span deviation,Mass concentration (μg/m³),Mass concentration (μg/m³),Mass concentration (μg/m³)
DateTimeUTC,F1_M11,P_M11,Q1_M11,Q2_M11,T1_M11,T2_M11,T3_M11,T4_M11,T5_M11,U1_M11,ZSPAN_M11,X0_M11,X2_M11,X1_M11
2023-05-02 09:00:00,,0828.2,5.01,0.00,28.1,26.4,00.0,36.6,29.5,14.3,0000.0,0013.92,0005.59,0004.21
2023-05-02 09:01:00,,0828.2,5.00,0.00,28.1,26.4,00.0,36.6,29.5,14.2,0000.0,0015.21,0005.59,0004.21
2023-05-02 09:02:00,,0828.2,4.99,0.00,28.1,26.3,00.0,36.6,29.5,14.2,0000.0,0016.31,0005.63,0004.23
2023-05-02 09:03:00,,0828.2,5.00,0.00,28.1,26.3,00.0,36.6,29.5,14.2,0000.0,0017.27,0005.70,0004.24
2023-05-02 09:04:00,,0828.3,5.00,0.00,28.0,26.3,00.0,36.5,29.5,14.2,0000.0,0017.84,0005.70,0004.23
2023-05-02 09:05:00,,0828.3,5.01,0.00,28.0,26.3,00.0,36.5,29.5,14.3,0000.0,0018.06,0005.73,0004.23
2023-05-02 09:06:00,,0828.3,5.01,0.00,28.0,26.3,00.0,36.5,29.5,14.2,0000.0,0018.72,0005.71,0004.22
2023-05-02 09:07:00,,0828.3,5.01,0.00,28.0,26.3,00.0,36.5,29.5,14.2,0000.0,0020.07,0005.73,0004.22
2023-05-02 09:08:00,,0828.3,5.00,0.00,28.0,26.3,00.0,36.5,29.5,14.3,0000.0,0019.83,0005.71,0004.21
2023-05-02 09:09:00,,0828.3,4.99,0.00,28.0,26.3,00.0,36.5,29.4,14.3,0000.0,0020.70,0005.65,0004.21
2023-05-02 09:10:00,,0828.3,5.00,0.00,28.0,26.2,00.0,36.5,29.4,14.3,0000.0,0021.42,0005.67,0004.21
2023-05-02 09:11:00,,0828.3,5.00,0.00,28.0,26.2,00.0,36.5,29.4,14.3,0000.0,0022.43,0005.66,0004.21
2023-05-02 09:12:00,,0828.3,5.01,0.00,27.9,26.2,00.0,36.4,29.4,14.3,0000.0,0022.84,0005.68,0004.22
2023-05-02 09:13:00,,0828.3,5.01,0.00,27.9,26.2,00.0,36.4,29.4,14.3,0000.0,0022.54,0005.73,0004.22
2023-05-02 09:14:00,,0828.4,5.01,0.00,27.9,26.2,00.0,36.4,29.4,14.3,0000.0,0022.14,0005.74,0004.22
2023-05-02 09:15:00,,0828.4,5.00,0.00,27.9,26.2,00.0,36.4,29.4,14.3,0000.0,0021.06,0005.75,0004.24
2023-05-02 09:16:00,,0828.3,5.00,0.00,27.9,26.2,00.0,36.4,29.4,14.3,0000.0,0020.02,0005.74,0004.24
2023-05-02 09:17:00,,0828.3,4.99,0.00,27.9,26.2,00.0,36.4,29.4,14.3,0000.0,0019.41,0005.72,0004.24
2023-05-02 09:18:00,,0828.3,5.00,0.00,27.9,26.2,00.0,36.4,29.4,14.3,0000.0,0018.02,0005.71,0004.25
2023-05-02 09:19:00,,0828.3,5.00,0.00,27.9,26.2,00.0,36.4,29.3,14.3,0000.0,0017.36,0005.66,0004.25
2023-05-02 09:20:00,,0828.3,5.01,0.00,27.9,26.1,00.0,36.4,29.3,14.4,0000.0,0016.98,0005.67,0004.24
2023-05-02 09:21:00,,0828.3,5.01,0.00,27.9,26.1,00.0,36.4,29.3,14.4,0000.0,0016.76,0005.67,0004.25
2023-05-02 09:22:00,,0828.3,5.00,0.00,27.8,26.1,00.0,36.3,29.4,14.4,0000.0,0017.04,0005.72,0004.26
2023-05-02 09:23:00,,0828.3,4.99,0.00,27.8,26.1,00.0,36.3,29.4,14.4,0000.0,0016.42,0005.70,0004.26
2023-05-02 09:24:00,,0828.4,5.00,0.00,27.8,26.1,00.0,36.3,29.4,14.4,0000.0,0016.44,0005.68,0004.26
2023-05-02 09:25:00,,0828.4,4.99,0.00,27.8,26.1,00.0,36.3,29.3,14.4,0000.0,0017.10,0005.66,0004.27
2023-05-02 09:26:00,,0828.4,5.00,0.00,27.8,26.1,00.0,36.3,29.3,14.4,0000.0,0017.40,0005.63,0004.26
2023-05-02 09:27:00,,0828.4,5.01,0.00,27.8,26.1,00.0,36.3,29.3,14.4,0000.0,0017.46,0005.65,0004.25
2023-05-02 09:28:00,,0828.4,5.01,0.00,27.8,26.1,00.0,36.3,29.3,14.3,0000.0,0017.70,0005.62,0004.24
2023-05-02 09:29:00,,0828.4,5.01,0.00,27.8,26.1,00.0,36.3,29.2,14.3,0000.0,0017.93,0005.61,0004.24
2023-05-02 09:30:00,,0828.5,4.99,0.00,27.8,26.1,00.0,36.3,29.2,14.3,0000.0,0018.30,0005.61,0004.24
2023-05-02 09:31:00,,0828.6,4.99,0.00,27.8,26.1,00.0,36.2,29.2,14.3,0000.0,0018.33,0005.64,0004.24
2023-05-02 09:32:00,,0828.6,5.01,0.00,27.7,26.0,00.0,36.2,29.2,14.4,0000.0,0017.92,0005.67,0004.25
2023-05-02 09:33:00,,0828.6,5.00,0.00,27.7,26.0,00.0,36.2,29.2,14.4,0000.0,0016.80,0005.64,0004.24
2023-05-02 09:34:00,,0828.6,5.00,0.00,27.7,26.0,00.0,36.2,29.2,14.4,0000.0,0016.67,0005.61,0004.24
2023-05-02 09:35:00,,0828.6,5.00,0.00,27.7,26.0,00.0,36.2,29.2,14.4,0000.0,0016.28,0005.58,0004.23
2023-05-02 09:36:00,,0828.6,5.01,0.00,27.7,26.0,00.0,36.2,29.2,14.4,0000.0,0015.15,0005.57,0004.23
2023-05-02 09:37:00,,0828.6,4.99,0.00,27.7,26.0,00.0,36.2,29.2,14.5,0000.0,0014.88,0005.63,0004.24
2023-05-02 09:38:00,,0828.6,4.99,0.00,27.7,25.9,00.0,36.2,29.2,14.5,0000.0,0015.17,0005.63,0004.25
2023-05-02 09:39:00,,0828.6,5.00,0.00,27.7,25.9,00.0,36.2,29.1,14.5,0000.0,0015.42,0005.64,0004.27
2023-05-02 09:40:00,,0828.6,5.00,0.00,27.7,25.9,00.0,36.2,29.2,14.5,0000.0,0015.22,0005.66,0004.28
2023-05-02 09:41:00,,0828.6,5.00,0.00,27.7,25.9,00.0,36.1,29.1,14.5,0000.0,0014.90,0005.70,0004.28
2023-05-02 09:42:00,,0828.6,5.01,0.00,27.6,25.9,00.0,36.1,29.1,14.6,0000.0,0015.00,0005.69,0004.28
2023-05-02 09:43:00,,0828.6,5.00,0.00,27.6,25.9,00.0,36.1,29.1,14.6,0000.0,0016.33,0005.62,0004.27
2023-05-02 09:44:00,,0828.6,4.99,0.00,27.6,25.9,00.0,36.1,29.1,14.6,0000.0,0016.68,0005.61,0004.27
2023-05-02 09:45:00,,0828.6,4.99,0.00,27.6,25.9,00.0,36.1,29.1,14.7,0000.0,0016.27,0005.62,0004.28
2023-05-02 09:46:00,,0828.6,5.00,0.00,27.6,25.9,00.0,36.1,29.1,14.7,0000.0,0015.80,0005.59,0004.28
2023-05-02 09:47:00,,0828.6,5.01,0.00,27.6,25.9,00.0,36.1,29.1,14.7,0000.0,0016.58,0005.59,0004.28
2023-05-02 09:48:00,,0828.7,5.01,0.00,27.6,25.9,00.0,36.1,29.1,14.7,0000.0,0016.86,0005.61,0004.28
2023-05-02 09:49:00,,0828.7,5.01,0.00,27.6,25.9,00.0,36.1,29.1,14.7,0000.9,0018.41,0005.58,0004.27
2023-05-02 09:50:00,,0828.7,4.99,0.00,27.6,25.9,00.0,36.1,29.1,14.7,0000.8,0017.95,0005.61,0004.28
2023-05-02 09:51:00,,0828.8,5.00,0.00,27.6,25.9,00.0,36.1,29.1,14.7,0000.0,0018.04,0005.61,0004.28
2023-05-02 09:52:00,,0828.7,5.00,0.00,27.6,25.8,00.0,36.0,29.1,14.7,0000.0,0018.64,0005.65,0004.28
2023-05-02 09:53:00,,0828.8,5.01,0.00,27.6,25.9,00.0,36.0,29.1,14.7,0000.0,0018.37,0005.70,0004.29
2023-05-02 09:54:00,,0828.8,5.00,0.00,27.6,25.9,00.0,36.0,29.2,14.7,0000.0,0016.57,0005.71,0004.29
2023-05-02 09:55:00,,0828.7,5.01,0.00,27.6,25.9,00.0,36.0,29.1,14.7,0000.0,0016.37,0005.76,0004.31
2023-05-02 09:56:00,,0828.7,5.00,0.00,27.6,25.8,00.0,36.0,29.1,14.7,0000.0,0017.11,0005.79,0004.31
2023-05-02 09:57:00,,0828.7,5.01,0.00,27.6,25.9,00.0,36.0,29.1,14.7,0000.0,0017.26,0005.86,0004.32
2023-05-02 09:58:00,,0828.8,5.00,0.00,27.6,25.9,00.0,36.0,29.1,14.7,0000.0,0017.53,0005.93,0004.34
2023-05-02 09:59:00,,0828.7,5.00,0.00,27.6,25.9,00.0,36.0,29.1,14.8,0000.0,0017.35,0005.87,0004.35
